Weather History for KBPI - March, 2013

Change the Weather History Date:

Tuesday, March 26, 2013

  Actual Average Record
Temperature  
Mean Temperature 27 °F 31 °F  
Max Temperature 42 °F 46 °F 59 °F (2007)
Min Temperature 12 °F 17 °F -17 °F (1996)
Degree Days  
Heating Degree Days 38 34  
Month to date heating degree days 978 1009  
Since 1 July heating degree days 7842 8532  
Cooling Degree Days 0 0  
Month to date cooling degree days 0 0  
Year to date cooling degree days 0 0  
Moisture  
Dew Point 17 °F    
Average Humidity 73    
Maximum Humidity 100    
Minimum Humidity 45    
Precipitation  
Precipitation T in 0.01 in 0.15 in (2009)
Month to date precipitation 0.03 0.34  
Year to date precipitation 0.19 1.00  
Sea Level Pressure  
Sea Level Pressure 30.06 in    
Wind  
Wind Speed 3 mph (NE)    
Max Wind Speed 14 mph    
Max Gust Speed 17 mph    
Visibility 10 miles    
Events      
T = Trace of Precipitation, MM = Missing Value Source: NWS Daily Summary

Daily Weather History Graph

Daily Weather History Graph

Search for Another Location

Airport or City:

Trip Planner

Search our weather history database for the weather conditions in past years. The results will help you decide how hot, cold, wet, or windy it might be!

Date:

Astronomy

Mar. 26, 2013 Rise Set
Actual Time 7:12 AM MDT 7:39 PM MDT
Civil Twilight 6:44 AM MDT 8:08 PM MDT
Nautical Twilight 6:11 AM MDT 8:41 PM MDT
Astronomical Twilight 5:36 AM MDT 9:16 PM MDT
Moon 7:21 PM MDT (3/26) 6:31 AM MDT (3/26)
Length of Visible Light 13h 23m
Length of Day
12h 27m
Waxing Gibbous, 99% of the Moon is Illuminated
Mar 26
Waxing Gibbous
Mar 27
Full
Apr 2
Last Quarter
Apr 10
New
Apr 18
First Quarter

Hourly Weather History & Observations

Time (MDT) Temp. Windchill Dew Point Humidity Pressure Visibility Wind Dir Wind Speed Gust Speed Precip Events Conditions
12:53 AM 16.0 °F 10.4 °F 10.9 °F 81% 30.17 in 10.0 mi NNW 3.5 mph - N/A   Mostly Cloudy
1:53 AM 15.1 °F - 10.0 °F 80% 30.15 in 10.0 mi Calm Calm - N/A   Partly Cloudy
2:53 AM 14.0 °F 8.2 °F 9.0 °F 80% 30.14 in 10.0 mi ESE 3.5 mph - N/A   Partly Cloudy
3:53 AM 12.9 °F - 9.0 °F 84% 30.12 in 10.0 mi Calm Calm - N/A   Scattered Clouds
4:53 AM 12.9 °F - 9.0 °F 84% 30.09 in 10.0 mi Calm Calm - N/A   Partly Cloudy
5:53 AM 15.1 °F - 9.0 °F 77% 30.08 in 10.0 mi Calm Calm - N/A   Partly Cloudy
6:53 AM 12.0 °F - 9.0 °F 88% 30.09 in 10.0 mi Calm Calm - N/A   Scattered Clouds
7:53 AM 15.1 °F 7.7 °F 10.0 °F 80% 30.09 in 10.0 mi ENE 4.6 mph - N/A   Mostly Cloudy
8:53 AM 19.9 °F - 12.9 °F 74% 30.11 in 10.0 mi Calm Calm - N/A   Scattered Clouds
9:33 AM 21.2 °F - 15.8 °F 80% 30.01 in 8.0 mi Calm Calm - N/A   Overcast
9:53 AM 21.9 °F - 16.0 °F 78% 30.10 in 10.0 mi Calm Calm - 0.00 in   Mostly Cloudy
10:02 AM 23.0 °F - 15.8 °F 74% 30.00 in 10.0 mi Calm Calm - N/A   Mostly Cloudy
10:53 AM 28.9 °F - 12.0 °F 49% 30.07 in 10.0 mi Calm Calm - N/A   Overcast
11:53 AM 32.0 °F 28.7 °F 14.0 °F 48% 30.05 in 10.0 mi East 3.5 mph - N/A   Overcast
12:53 PM 32.0 °F - 16.0 °F 52% 30.04 in 10.0 mi Calm Calm - N/A   Clear
1:53 PM 35.1 °F - 18.0 °F 50% 30.03 in 10.0 mi Calm Calm - N/A   Clear
2:53 PM 37.0 °F 33.3 °F 19.0 °F 48% 30.00 in 10.0 mi Variable 4.6 mph - N/A   Mostly Cloudy
3:53 PM 37.9 °F - 19.9 °F 48% 29.99 in 10.0 mi Calm Calm - N/A   Overcast
4:53 PM 39.9 °F 36.7 °F 21.9 °F 49% 29.98 in 10.0 mi WSW 4.6 mph - N/A   Mostly Cloudy
5:53 PM 41.0 °F 37.1 °F 23.0 °F 49% 29.97 in 10.0 mi East 5.8 mph - N/A   Mostly Cloudy
6:53 PM 36.0 °F 28.0 °F 28.0 °F 73% 30.02 in 10.0 mi NE 11.5 mph - N/A   Overcast
7:53 PM 32.0 °F 25.6 °F 27.0 °F 82% 30.03 in 10.0 mi ENE 6.9 mph - N/A   Clear
8:53 PM 30.0 °F 26.5 °F 27.0 °F 88% 30.04 in 10.0 mi North 3.5 mph - N/A   Overcast
9:53 PM 28.0 °F 22.8 °F 26.1 °F 92% 30.05 in 10.0 mi North 4.6 mph - N/A   Clear
10:53 PM 27.0 °F - 25.0 °F 92% 30.02 in 10.0 mi Calm Calm - N/A   Partly Cloudy
11:53 PM 25.0 °F - 24.1 °F 96% 30.02 in 10.0 mi Calm Calm - N/A   Clear